Flag for United Kingdom Weather past 2 weeks in Caversham, England, United Kingdom

Now
58 °F

Overcast.


Feels Like: 58 °F
Forecast: 51 / 71 °F
Wind: 1 mph from North

Location: Benson

Current Time: Jul 5, 2015 at 8:59:02 AM

Latest Report: Jul 5, 2015 at 8:00 AM


Visibility: 16 mi

Pressure: 30.07 "Hg

Humidity: 84%

Dew point: 53 °F

Location of CavershamLocation

Historic Weather in Caversham — Graph

°F

Caversham temperature yesterday

Maximum temperature yesterday: 78 °F (at 3:00 PM)
Minimum temperature yesterday: 62 °F (at 3:00 AM)
Average temperature yesterday: 70 °F

Past Weeks' High & Low Weather Summary

 TemperatureHumidityPressure
High91 °F (Jul 1, 4:00 PM)97% (Jun 20, 7:00 AM)30.31 "Hg (Jun 20, 7:00 AM)
Low45 °F (Jul 3, 5:00 AM)27% (Jun 30, 2:00 PM)29.80 "Hg (Jun 22, 1:00 PM)
Average64 °F71%30.07 "Hg
* Reported Jun 20 7:00 AM — Jul 5 7:00 AM, Caversham, Weather by CustomWeather, © 2015

Note: Actual official high and low records may vary slightly from our data, if they occured in-between our weather recording intervals... More about our weather records

Advertising

Caversham weather history for previous 24 hours

 ConditionsComfort  
Time TempWeatherWind HumidityBarometerVisibility
7:00 AM
Sun, Jul 5
56 °FCool.1 mph88%30.09 "Hg12 mi
6:00 AM51 °FCool.1 mph91%30.10 "Hg12 mi
5:00 AM49 °FCool.3 mph95%30.11 "Hg12 mi
3:00 AM52 °FCool.No wind92%30.12 "Hg15 mi
2:00 AM54 °FCool.2 mph91%30.14 "Hg18 mi
1:00 AM56 °FCool.5 mph85%30.13 "Hg17 mi
12:00 AM58 °FCool.6 mph81%30.13 "Hg19 mi
11:00 PM
Sat, Jul 4
62 °FMild.6 mph68%30.13 "Hg18 mi
10:00 PM65 °FMild.6 mph69%30.12 "Hg18 mi
9:00 PM68 °FMild.10 mph66%30.11 "Hg17 mi
8:00 PM71 °FMild.13 mph59%30.11 "Hg16 mi
7:00 PM74 °FMild.13 mph51%30.09 "Hg19 mi
6:00 PM76 °FMild.14 mph48%30.09 "Hg19 mi
5:00 PM77 °FMild.10 mph45%30.08 "Hg19 mi
4:00 PM77 °FWarm.15 mph45%30.08 "Hg19 mi
3:00 PM78 °FWarm.14 mph43%30.07 "Hg19 mi
2:00 PM77 °FWarm.15 mph49%30.06 "Hg19 mi
1:00 PM74 °FMild.14 mph58%30.06 "Hg19 mi
12:00 PM72 °FMild.15 mph63%30.06 "Hg18 mi
11:00 AM70 °FMild.14 mph67%30.05 "Hg19 mi
10:00 AM70 °FMild.15 mph67%30.04 "Hg16 mi
9:00 AM70 °FMild.13 mph69%30.02 "Hg14 mi
8:00 AM68 °FMild.16 mph80%30.01 "Hg9 mi
Weather by CustomWeather, © 2015

See weather overviewHow to use our weather pages